This is the latest recevied weather packets stored in our database for station/object OE6PLD-13. If no packets are shown the sender has not sent any weather packets the latest 10 day(s).
| Time | Temp. | Humidity | Pressure | Rain* | Wind** | Luminosity | Snow |
|---|---|---|---|---|---|---|---|
| 1777555368 | 15.56° C | 25% | 1012.7 hPa | 0.76 mm | - | 399 W/m² | - |
| 1777555184 | 15.56° C | 26% | 1012.7 hPa | 0.76 mm | - | 393 W/m² | - |
| 1777555001 | 15° C | 26% | 1012.9 hPa | 0.76 mm | - | 394 W/m² | - |
| 1777554818 | 14.44° C | 27% | 1012.6 hPa | 0.76 mm | - | 420 W/m² | - |
| 1777554634 | 14.44° C | 26% | 1012.9 hPa | 0.76 mm | - | 438 W/m² | - |
| 1777554451 | 14.44° C | 26% | 1012.8 hPa | 0.76 mm | - | 447 W/m² | - |
| 1777554268 | 15° C | 25% | 1012.6 hPa | 0.76 mm | - | 467 W/m² | - |
| 1777554084 | 15° C | 27% | 1012.7 hPa | 0.76 mm | - | 486 W/m² | - |
| 1777553901 | 15° C | 25% | 1012.8 hPa | 0.76 mm | - | 498 W/m² | - |
| 1777553718 | 14.44° C | 26% | 1013.1 hPa | 0.76 mm | - | 491 W/m² | - |
| 1777553534 | 15° C | 25% | 1012.7 hPa | 0.76 mm | - | 488 W/m² | - |
| 1777553351 | 15° C | 25% | 1012.7 hPa | 0.76 mm | - | 504 W/m² | - |
| 1777553167 | 15° C | 25% | 1013.1 hPa | 0.76 mm | - | 497 W/m² | - |
| 1777552984 | 15° C | 26% | 1012.9 hPa | 0.76 mm | - | 495 W/m² | - |
| 1777552801 | 15.56° C | 26% | 1013 hPa | 0.76 mm | - | 483 W/m² | - |
| 1777552617 | 15° C | 25% | 1012.9 hPa | 0.76 mm | - | 469 W/m² | - |
| 1777552434 | 13.89° C | 24% | 1013 hPa | 0.76 mm | - | 476 W/m² | - |
| 1777552251 | 13.89° C | 23% | 1013.2 hPa | 0.76 mm | - | 495 W/m² | - |
| 1777552067 | 13.89° C | 24% | 1013.2 hPa | 0.76 mm | - | 504 W/m² | - |
| 1777551884 | 14.44° C | 25% | 1013.1 hPa | 0.76 mm | - | 506 W/m² | - |
| 1777551701 | 14.44° C | 24% | 1013.3 hPa | 0.76 mm | - | 514 W/m² | - |
| 1777551517 | 13.89° C | 24% | 1013 hPa | 0.76 mm | - | 514 W/m² | - |
| 1777551334 | 14.44° C | 25% | 1013.3 hPa | 0.76 mm | - | 525 W/m² | - |
| 1777551151 | 14.44° C | 26% | 1013.1 hPa | 0.76 mm | - | 533 W/m² | - |
| 1777550967 | 14.44° C | 27% | 1013.4 hPa | 0.76 mm | - | 536 W/m² | - |
* Rain latest hour (hover to see other rain measurements)
** Current wind speed in m/s (hover to see current wind gust speed)